timestamp,surface_pressure_avg,surface_temp_avg,battery_voltage,lat,long
2019-01-09 00:00:00+00:00,324.6531,0.8,12.89,47.84626,-54.09684
2019-01-09 00:10:00+00:00,327.6146,0.9,12.81,47.84626,-54.09684
2019-01-09 00:20:00+00:00,329.028,0.98,12.89,47.84626,-54.09684
2019-01-09 00:30:00+00:00,332.6763,1.0,12.89,47.84626,-54.09684
2019-01-09 00:40:00+00:00,337.3146,0.9,12.97,47.84626,-54.09684
2019-01-09 00:50:00+00:00,338.4781,0.7,12.97,47.84626,-54.09684
2019-01-09 01:00:00+00:00,338.9563,0.7,12.81,47.84626,-54.09684
2019-01-09 01:10:00+00:00,345.9297,0.8,12.81,47.84626,-54.09684
2019-01-09 01:20:00+00:00,347.7914,0.8,12.89,47.84626,-54.09684
2019-01-09 01:30:00+00:00,341.0996,0.8,12.89,47.84626,-54.09684
2019-01-09 01:40:00+00:00,339.5729,0.81,12.89,47.84626,-54.09684
2019-01-09 01:50:00+00:00,338.3963,0.9,12.89,47.84626,-54.09684
2019-01-09 02:00:00+00:00,333.6296,0.85,12.81,47.84626,-54.09684
2019-01-09 02:10:00+00:00,332.898,0.82,12.73,47.84626,-54.09684
2019-01-09 02:20:00+00:00,336.4998,0.9,12.81,47.84626,-54.09684
2019-01-09 02:30:00+00:00,333.2213,0.82,12.81,47.84626,-54.09684
2019-01-09 02:40:00+00:00,333.1663,0.8,12.89,47.84626,-54.09684
2019-01-09 02:50:00+00:00,340.1863,0.9,12.89,47.84626,-54.09684
2019-01-09 03:00:00+00:00,343.8147,0.9,12.81,47.84626,-54.09684
2019-01-09 03:10:00+00:00,337.2646,0.88,12.73,47.84626,-54.09684
2019-01-09 03:20:00+00:00,334.1946,0.9,12.81,47.84626,-54.09684
2019-01-09 03:30:00+00:00,332.0129,0.9,12.81,47.84626,-54.09684
2019-01-09 03:40:00+00:00,323.1813,0.98,12.89,47.84626,-54.09684
2019-01-09 03:50:00+00:00,312.4414,0.9,12.89,47.84626,-54.09684
2019-01-09 04:00:00+00:00,307.9998,0.96,12.81,47.84626,-54.09684
2019-01-09 04:10:00+00:00,304.8047,0.9,12.73,47.84626,-54.09684
2019-01-09 04:20:00+00:00,294.1863,1.1,12.81,47.84626,-54.09684
2019-01-09 04:30:00+00:00,286.273,1.1,12.81,47.84626,-54.09684
2019-01-09 04:40:00+00:00,284.0131,1.1,12.89,47.84626,-54.09684
2019-01-09 04:50:00+00:00,276.3347,1.1,12.89,47.84626,-54.09684
2019-01-09 05:00:00+00:00,261.5348,1.1,12.81,47.84626,-54.09684
2019-01-09 05:10:00+00:00,256.243,1.1,12.73,47.84626,-54.09684
2019-01-09 05:20:00+00:00,252.0347,1.1,12.81,47.84626,-54.09684
2019-01-09 05:30:00+00:00,240.2898,1.09,12.81,47.84626,-54.09684
2019-01-09 05:40:00+00:00,227.0964,1.05,12.89,47.84626,-54.09684
2019-01-09 05:50:00+00:00,224.0531,1.0,12.89,47.84626,-54.09684
2019-01-09 06:00:00+00:00,217.2131,1.0,12.81,47.84626,-54.09684
2019-01-09 06:10:00+00:00,204.2431,1.0,12.73,47.84626,-54.09684
2019-01-09 06:20:00+00:00,196.4865,1.0,12.81,47.84626,-54.09684
2019-01-09 06:30:00+00:00,194.5531,0.99,12.81,47.84626,-54.09684
2019-01-09 06:40:00+00:00,189.2748,1.0,12.89,47.84626,-54.09684
2019-01-09 06:50:00+00:00,183.9481,1.0,12.89,47.84626,-54.09684
2019-01-09 07:00:00+00:00,184.6664,1.0,12.81,47.84626,-54.09684
2019-01-09 07:10:00+00:00,186.588,1.09,12.73,47.84626,-54.09684
2019-01-09 07:20:00+00:00,184.4648,1.2,12.81,47.84626,-54.09684
2019-01-09 07:30:00+00:00,182.9181,1.3,12.81,47.84626,-54.09684
2019-01-09 07:40:00+00:00,187.3231,1.35,12.81,47.84626,-54.09684
2019-01-09 07:50:00+00:00,194.1498,1.3,12.89,47.84626,-54.09684
2019-01-09 08:00:00+00:00,195.7814,0.9,12.73,47.84626,-54.09684
2019-01-09 08:10:00+00:00,195.153,0.88,12.73,47.84626,-54.09684
2019-01-09 08:20:00+00:00,198.6248,0.8,12.81,47.84626,-54.09684
2019-01-09 08:30:00+00:00,204.4298,0.9,12.81,47.84626,-54.09684
2019-01-09 08:40:00+00:00,208.6082,1.1,12.81,47.84626,-54.09684
2019-01-09 08:50:00+00:00,216.5164,1.1,12.89,47.84626,-54.09684
2019-01-09 09:00:00+00:00,224.2814,1.1,12.73,47.84626,-54.09684
2019-01-09 09:10:00+00:00,228.4164,1.16,12.73,47.84626,-54.09684
2019-01-09 09:20:00+00:00,233.1914,1.25,12.81,47.84626,-54.09684
2019-01-09 09:30:00+00:00,238.3881,1.28,12.81,47.84626,-54.09684
2019-01-09 09:40:00+00:00,241.7648,1.29,12.81,47.84626,-54.09684
2019-01-09 09:50:00+00:00,245.0348,1.3,12.81,47.84626,-54.09684
2019-01-09 10:00:00+00:00,251.5097,1.19,12.73,47.84626,-54.09684
2019-01-09 10:10:00+00:00,256.2263,1.2,12.73,47.84626,-54.09684
2019-01-09 10:20:00+00:00,257.7431,1.2,12.81,47.84626,-54.09684
2019-01-09 10:30:00+00:00,265.3114,1.21,12.81,47.84626,-54.09684
2019-01-09 10:40:00+00:00,277.3814,1.2,12.81,47.84626,-54.09684
2019-01-09 10:50:00+00:00,280.318,1.2,12.81,47.84626,-54.09684
2019-01-09 11:00:00+00:00,279.7213,1.2,12.73,47.84626,-54.09684
2019-01-09 11:10:00+00:00,295.1631,1.2,12.73,47.84626,-54.09684
2019-01-09 11:20:00+00:00,307.4263,1.2,12.81,47.84626,-54.09684
2019-01-09 11:30:00+00:00,306.923,1.0,12.81,47.84626,-54.09684
2019-01-09 11:40:00+00:00,307.9997,1.0,12.81,47.84626,-54.09684
2019-01-09 11:50:00+00:00,322.1398,1.0,12.81,47.84626,-54.09684
2019-01-09 12:00:00+00:00,318.9114,1.1,12.73,47.84626,-54.09684
2019-01-09 12:10:00+00:00,312.6862,1.2,12.73,47.84626,-54.09684
2019-01-09 12:20:00+00:00,323.118,1.25,12.81,47.84626,-54.09684
2019-01-09 12:30:00+00:00,331.9531,1.3,12.81,47.84626,-54.09684
2019-01-09 12:40:00+00:00,323.7163,1.3,12.81,47.84626,-54.09684
2019-01-09 12:50:00+00:00,321.6329,1.3,12.89,47.84626,-54.09684
2019-01-09 13:00:00+00:00,336.8896,1.3,12.81,47.84626,-54.09684
2019-01-09 13:10:00+00:00,341.3347,1.3,12.73,47.84626,-54.09684
2019-01-09 13:20:00+00:00,332.9663,1.35,12.89,47.84626,-54.09684
2019-01-09 13:30:00+00:00,344.3997,1.4,12.89,47.84626,-54.09684
2019-01-09 13:40:00+00:00,359.7829,1.4,12.97,47.84626,-54.09684
2019-01-09 13:50:00+00:00,354.4547,1.4,12.97,47.84626,-54.09684
2019-01-09 14:00:00+00:00,351.4647,1.4,12.97,47.84626,-54.09684
2019-01-09 14:10:00+00:00,358.7195,1.4,12.89,47.84626,-54.09684
2019-01-09 14:20:00+00:00,356.8846,1.4,12.97,47.84626,-54.09684
2019-01-09 14:30:00+00:00,347.373,1.34,13.05,47.84626,-54.09684
2019-01-09 14:40:00+00:00,348.7446,1.3,13.21,47.84626,-54.09684
2019-01-09 14:50:00+00:00,351.6196,1.31,13.21,47.84626,-54.09684
2019-01-09 15:00:00+00:00,342.2779,1.3,13.21,47.84626,-54.09684
2019-01-09 15:10:00+00:00,337.4763,1.3,13.21,47.84626,-54.09684
2019-01-09 15:20:00+00:00,342.9213,1.3,13.29,47.84626,-54.09684
2019-01-09 15:30:00+00:00,342.4813,1.3,13.29,47.84626,-54.09684
2019-01-09 15:40:00+00:00,333.3763,1.3,13.29,47.84626,-54.09684
2019-01-09 15:50:00+00:00,327.2047,1.3,13.37,47.84626,-54.09684
2019-01-09 16:00:00+00:00,327.403,1.28,13.29,47.84626,-54.09684
2019-01-09 16:10:00+00:00,315.093,1.2,13.29,47.84626,-54.09684
2019-01-09 16:20:00+00:00,298.3281,1.2,13.37,47.84626,-54.09684
2019-01-09 16:30:00+00:00,292.5697,1.2,13.44,47.84626,-54.09684
2019-01-09 16:40:00+00:00,287.9814,1.2,13.44,47.84626,-54.09684
2019-01-09 16:50:00+00:00,277.743,1.2,13.44,47.84626,-54.09684
2019-01-09 17:00:00+00:00,270.8398,1.22,13.44,47.84626,-54.09684
2019-01-09 17:10:00+00:00,268.5464,1.24,13.37,47.84626,-54.09684
2019-01-09 17:20:00+00:00,260.5098,1.24,13.44,47.84626,-54.09684
2019-01-09 17:30:00+00:00,247.2581,1.24,13.44,47.84626,-54.09684
2019-01-09 17:40:00+00:00,235.9247,1.25,13.44,47.84626,-54.09684
2019-01-09 17:50:00+00:00,227.7647,1.28,13.44,47.84626,-54.09684
2019-01-09 18:00:00+00:00,222.3198,1.29,13.37,47.84626,-54.09684
2019-01-09 18:10:00+00:00,215.5314,1.3,13.21,47.84626,-54.09684
2019-01-09 18:20:00+00:00,202.4365,1.3,13.29,47.84626,-54.09684
2019-01-09 18:30:00+00:00,195.7464,1.3,13.21,47.84626,-54.09684
2019-01-09 18:40:00+00:00,199.9981,1.28,13.21,47.84626,-54.09684
2019-01-09 18:50:00+00:00,194.9381,1.3,13.21,47.84626,-54.09684
2019-01-09 19:00:00+00:00,184.5015,1.3,13.05,47.84626,-54.09684
2019-01-09 19:10:00+00:00,184.4848,1.3,12.97,47.84626,-54.09684
2019-01-09 19:20:00+00:00,192.1848,1.3,13.05,47.84626,-54.09684
2019-01-09 19:30:00+00:00,193.5914,1.3,13.05,47.84626,-54.09684
2019-01-09 19:40:00+00:00,192.5731,1.3,13.05,47.84626,-54.09684
2019-01-09 19:50:00+00:00,197.9198,1.3,13.05,47.84626,-54.09684
2019-01-09 20:00:00+00:00,206.2298,1.3,12.97,47.84626,-54.09684
2019-01-09 20:10:00+00:00,204.8148,1.3,12.89,47.84626,-54.09684
2019-01-09 20:20:00+00:00,199.2965,1.33,12.97,47.84626,-54.09684
2019-01-09 20:30:00+00:00,203.9931,1.36,12.97,47.84626,-54.09684
2019-01-09 20:40:00+00:00,208.9115,1.37,12.97,47.84626,-54.09684
2019-01-09 20:50:00+00:00,208.8097,1.38,12.97,47.84626,-54.09684
2019-01-09 21:00:00+00:00,215.1864,1.38,12.89,47.84626,-54.09684
2019-01-09 21:10:00+00:00,228.0414,1.38,12.81,47.84626,-54.09684
2019-01-09 21:20:00+00:00,230.6731,1.39,12.89,47.84626,-54.09684
2019-01-09 21:30:00+00:00,226.3698,1.4,12.89,47.84626,-54.09684
2019-01-09 21:40:00+00:00,227.0048,1.39,12.89,47.84626,-54.09684
2019-01-09 21:50:00+00:00,239.3297,1.37,12.89,47.84626,-54.09684
2019-01-09 22:00:00+00:00,246.2347,1.39,12.81,47.84626,-54.09684
2019-01-09 22:10:00+00:00,247.8314,1.4,12.73,47.84626,-54.09684
2019-01-09 22:20:00+00:00,251.1697,1.4,12.81,47.84626,-54.09684
2019-01-09 22:30:00+00:00,255.2981,1.44,12.81,47.84626,-54.09684
2019-01-09 22:40:00+00:00,253.9114,1.48,12.81,47.84626,-54.09684
2019-01-09 22:50:00+00:00,258.9364,1.42,12.89,47.84626,-54.09684
2019-01-09 23:00:00+00:00,269.2347,1.4,12.81,47.84626,-54.09684
2019-01-09 23:10:00+00:00,278.6714,1.41,12.73,47.84626,-54.09684
2019-01-09 23:20:00+00:00,275.723,1.42,12.81,47.84626,-54.09684
2019-01-09 23:30:00+00:00,278.553,1.4,12.81,47.84626,-54.09684
2019-01-09 23:40:00+00:00,287.1514,1.4,12.81,47.84626,-54.09684
2019-01-09 23:50:00+00:00,295.8581,1.45,12.81,47.84626,-54.09684
